COSMOS 198

导读

“宇宙-198(COSMOS 198)”是苏联(现归属于独联体CIS)于1967年12月27日发射的卫星,是世界上首颗海洋监视卫星,属于雷达型海洋监视试验卫星。它开创了海洋卫星监视的技术先河,后续推动这类卫星快速发展,1973年后苏联正式将海洋监视卫星投入实用,这类卫星可用于跟踪海上目标、探测海洋环境参数。

基本信息
目录编号:
3081
目录名称:
COSMOS 198
国际标识:
1967-127A
轨道中心:
EARTH
卫星名称:
COSMOS 198
卫星全名:
--
卫星状态:
在轨 (已飞行21357 天)
发射日期:
1967-12-27 UTC
国别 :
俄罗斯(独联体) (CIS)
星等 :
--
轨道信息
数据来源 国际轨道数据 AOE轨道数据
星历时间 2026-06-17T20:24:38+0800
9小时前
查看轨道信息
2026-06-17T07:00:00+0800
23小时前
查看轨道信息
半长轴 7294.899km 7294.901km
偏心率 0.0013206 0.0013245
轨道倾角 65.144° 65.143°
近地点辐角 63.609° 63.669°
升交点赤经 280.842° 282.303°
平近点角 296.633° 13.861°
近地点 907.128km 907.101km
远地点 926.396km 926.427km
周期 103.345分钟 103.345分钟
每日圈数 13.933938 13.933933
详细信息
使用方式:
暂无
2D轨道图
3D轨道图
轨道高度分析图
轨道倾角分析图
轨道综合分析图
查看轨道综合分析图